User: anonymous   Login
Location: Broletto
(44.6000°N, 10.5833°E)
Time: 05:18:20
(UTC+00:00)
Language:

Timation 2 Rocket - Orbit

View from above orbital plane
View from above orbital plane
View from above satellite
View from above satellite

Ground track
Ground track

The orbit data is extracted from the following two-line orbital elements,

1  4159U 69082AB  21171.29175436 -.00000012  00000-0  39335-4 0  9994
2  4159  69.9625  22.2465 0113424  67.6962 293.6110 13.72464212588971
Epoch (UTC): 20 June 2021 07:00:07
Eccentricity: 0.0113424
inclination: 69.9625°
perigee height: 907 km
apogee height: 1074 km
right ascension of ascending node: 22.2465°
argument of perigee: 67.6962°
revolutions per day: 13.72464212
mean anomaly at epoch: 293.6110°
orbit number at epoch: 58897

The dashed part of the orbit path shows where the satellite is in the earth's shadow,  

DLR